Regional Weather Roundup
Issued by NWS

Home | Current Version | Previous Version | Graphics & Text | Print | Product List | Glossary On
Versions: 1 2 3 4 5 6 7 8 9 10 11 12 13 14 15 16 17 18 19 20 21 22 23 24 25 26 27 28 29 30 31 32 33 34 35 36 37 38 39 40 41 42 43 44 45 46 47 48 49 50
000
ASUS45 KABQ 021710
RWRNM
NEW MEXICO REGIONAL WEATHER ROUNDUP
NATIONAL WEATHER SERVICE ALBUQUERQUE NM
1100 AM MDT WED SEP 02 2015

NOTE: "FAIR" MEANS FEW OR NO CLOUDS BELOW 12,000 FEET AGL WITH NO
       SIGNIFICANT WEATHER OR OBSTRUCTIONS TO VISION.

      THIS PRODUCT IS RELEASED AS TWO VERSIONS.  ONE VERSION NEAR
      THE TOP OF THE HOUR CONTAINING PRELIMINARY DATA FROM ALBUQUERQUE
      AND OTHER STATIONS.  A FINAL VERSION WITH ADDITIONAL DATA IS
      ISSUED ABOUT 10 MINUTES AFTER THE HOUR.

NMZ501-503-504-510>518-021800-
NORTHWEST PLATEAU/NORTHCENTRAL MOUNTAINS

CITY           SKY/WX    TMP DP  RH WIND       PRES   REMARKS
FARMINGTON     SUNNY     78  48  34 CALM      30.22F
LOS ALAMOS     MOSUNNY   72  46  38 N3        30.35S
SANTA FE       MOSUNNY   78  43  28 VRB3      30.28S
TAOS           MOSUNNY   72  43  35 SE3       30.35F
ANGEL FIRE     FAIR      68  46  45 SW10      30.41S

$$
NMZ402-403-502-505>509-021800-
WESTCENTRAL MOUNTAINS/SOUTHWEST MOUNTAINS

CITY           SKY/WX    TMP DP  RH WIND       PRES   REMARKS
GALLUP         MOSUNNY   75  52  44 SW8       30.31F
GRANTS         CLOUDY    73  53  49 CALM      30.34S
SILVER CITY      N/A     81  54  39 W6        30.25R

$$
NMZ407-409-411-412-021800-
SOUTHERN DESERTS

CITY           SKY/WX    TMP DP  RH WIND       PRES   REMARKS
LORDSBURG      FAIR      81  55  41 NW3       30.16S
DEMING         SUNNY     86  52  30 CALM      30.15S
LAS CRUCES     MOSUNNY   87  47  24 W3        30.15F
HOLLOMAN AFB   SUNNY     87  47  24 W6        30.11F
ALAMOGORDO     SUNNY     86  45  23 W5        30.13F
T OR C         SUNNY     85  49  28 NE9G18    30.18S

$$
NMZ519>523-021800-
CENTRAL VALLEYS/CENTRAL HIGHLANDS

CITY           SKY/WX    TMP DP  RH WIND       PRES   REMARKS
ALBUQUERQUE    PTSUNNY   78  48  34 SW5       30.23S
DOUBLE EAGLE   PTSUNNY   79  48  34 VRB6      30.27S
MORIARTY ARPT  FAIR      79  46  31 W6        30.28S
CLINES CORNERS PTSUNNY   76  48  37 NW12      30.31F
BELEN          FAIR      80  49  33 CALM      30.22F
SOCORRO        FAIR      82  49  32 CALM      30.19F

$$
NMZ524>526-539-540-021800-
SOUTHCENTRAL MOUNTAINS

CITY           SKY/WX    TMP DP  RH WIND       PRES   REMARKS
RUIDOSO        MOSUNNY   79  43  27 MISG      30.34F

$$
NMZ527>531-021800-
NORTHEAST HIGHLANDS/NORTHEAST PLAINS

CITY           SKY/WX    TMP DP  RH WIND       PRES   REMARKS
LAS VEGAS      PTSUNNY   75  46  35 VRB3      30.29S
RATON          SUNNY     79  48  33 MISG      30.21F
CLAYTON        MOSUNNY   83  54  36 SW8       30.12F

$$
NMZ532>537-021800-
EASTCENTRAL PLAINS

CITY           SKY/WX    TMP DP  RH WIND       PRES   REMARKS
TUCUMCARI      MOSUNNY   89  50  26 SW14      30.09S
CANNON AFB     SUNNY     87  49  27 S13G20    30.13F
CLOVIS AIRPORT SUNNY     86  52  30 SW14      30.14F

$$
NMZ028-029-538-021800-
SOUTHEAST PLAINS

CITY           SKY/WX    TMP DP  RH WIND       PRES   REMARKS
ROSWELL        SUNNY     87  51  28 SE13      30.10F
ARTESIA        SUNNY     86  54  32 SE15      30.10F
CARLSBAD       SUNNY     86  56  35 SE14G20   30.09S
HOBBS          SUNNY     82  57  42 SE15      30.15S


$$



USA.gov is the U.S. government's official web portal to all federal, state and local government web resources and services.